This is the latest recevied weather packets stored in our database for station/object EA1IDU-12. If no packets are shown the sender has not sent any weather packets the latest 1 day(s).
| Time | Temp. | Humidity | Pressure | Rain* | Wind** | Luminosity | Snow |
|---|---|---|---|---|---|---|---|
| 1788611107 | 34.44° C | 20% | 1031.1 hPa | - | - | - | - |
| 1788610207 | 35° C | 20% | 1031.2 hPa | - | - | - | - |
| 1788609307 | 33.33° C | 23% | 1031.4 hPa | - | - | - | - |
| 1788608406 | 33.89° C | 23% | 1031.4 hPa | - | - | - | - |
| 1788607506 | 33.89° C | 24% | 1031.7 hPa | - | - | - | - |
| 1788606606 | 33.33° C | 26% | 1031.7 hPa | - | - | - | - |
| 1788605706 | 30.56° C | 28% | 1031.9 hPa | - | - | - | - |
| 1788604806 | 30° C | 29% | 1032 hPa | - | - | - | - |
| 1788603906 | 29.44° C | 31% | 1032 hPa | - | - | - | - |
| 1788603005 | 28.89° C | 32% | 1032 hPa | - | - | - | - |
| 1788602105 | 28.33° C | 34% | 1032.2 hPa | - | - | - | - |
| 1788601205 | 27.78° C | 35% | 1032.1 hPa | - | - | - | - |
| 1788600305 | 26.11° C | 37% | 1032.2 hPa | - | - | - | - |
| 1788599405 | 25.56° C | 37% | 1032.2 hPa | - | - | - | - |
| 1788598505 | 25° C | 38% | 1032.1 hPa | - | - | - | - |
| 1788597604 | 24.44° C | 39% | 1031.9 hPa | - | - | - | - |
| 1788596704 | 23.89° C | 39% | 1031.9 hPa | - | - | - | - |
| 1788595804 | 22.22° C | 40% | 1031.9 hPa | - | - | - | - |
| 1788594903 | 21.11° C | 40% | 1031.9 hPa | - | - | - | - |
| 1788594003 | 21.11° C | 40% | 1032 hPa | - | - | - | - |
| 1788593103 | 22.22° C | 40% | 1031.8 hPa | - | - | - | - |
| 1788592203 | 22.78° C | 39% | 1031.9 hPa | - | - | - | - |
| 1788591303 | 21.11° C | 39% | 1031.9 hPa | - | - | - | - |
| 1788590403 | 18.89° C | 40% | 1031.8 hPa | - | - | - | - |
| 1788589503 | 17.78° C | 41% | 1031.8 hPa | - | - | - | - |
* Rain since midnight (hover to see other rain measurements)
** Current wind speed in m/s (hover to see current wind gust speed)